Weather History for Defiance, OH

Change the Weather History Date:

Monday, December 10, 2012

  Actual Average Record
Temperature  
Mean Temperature 38 °F -  
Max Temperature 44 °F 38 °F 63 °F (1952)
Min Temperature 33 °F 22 °F -10 °F (1958)
Degree Days  
Heating Degree Days 26    
Moisture  
Dew Point 34 °F    
Average Humidity 85    
Maximum Humidity 100    
Minimum Humidity 73    
Precipitation  
Precipitation 0.00 in - - ()
Sea Level Pressure  
Sea Level Pressure 29.73 in    
Wind  
Wind Speed 5 mph (West)    
Max Wind Speed 10 mph    
Max Gust Speed 16 mph    
Visibility 7 miles    
Events Fog , Rain    
Averages and records for this station are not official NWS values.
T = Trace of Precipitation, MM = Missing Value Source: NWS Daily Summary

Daily Weather History Graph

Daily Weather History Graph

Search for Another Location

Airport:

Trip Planner

Search our weather history database for the weather conditions in past years. The results will help you decide how hot, cold, wet, or windy it might be!

Date:

Astronomy

Dec. 10, 2012 Rise Set
Actual Time 7:53 AM EST 5:08 PM EST
Civil Twilight 7:21 AM EST 5:39 PM EST
Nautical Twilight 6:47 AM EST 6:14 PM EST
Astronomical Twilight 6:13 AM EST 6:47 PM EST
Moon 4:34 AM EST (12/10) 2:58 PM EST (12/10)
Length of Visible Light 10h 17m
Length of Day
9h 15m
Waning Crescent, 10% of the Moon is Illuminated
Dec 10
Waning Crescent
Dec 13
New
Dec 20
First Quarter
Dec 28
Full
Jan 4
Last Quarter

Hourly Weather History & Observations

Time (EST) Temp. Windchill Dew Point Humidity Pressure Visibility Wind Dir Wind Speed Gust Speed Precip Events Conditions
12:20 AM 41.0 °F 39.0 °F 39.2 °F 93% 29.67 in 1.8 mi WSW 3.5 mph - N/A   Overcast
12:35 AM 41.0 °F 39.0 °F 39.2 °F 93% 29.67 in 0.5 mi WSW 3.5 mph - 0.00 in Fog , Rain Light Rain
12:53 AM 42.1 °F - 41.0 °F 96% 29.68 in 0.5 mi Calm Calm - 0.00 in Fog Fog
1:12 AM 42.8 °F 41.1 °F 41.0 °F 93% 29.67 in 1.2 mi WSW 3.5 mph - N/A   Overcast
1:21 AM 42.8 °F 41.1 °F 41.0 °F 93% 29.66 in 2.5 mi Variable 3.5 mph - N/A   Overcast
1:30 AM 42.8 °F 41.1 °F 42.8 °F 100% 29.67 in 3.0 mi WSW 3.5 mph - N/A   Overcast
1:53 AM 43.0 °F 41.3 °F 42.1 °F 97% 29.68 in 4.0 mi WSW 3.5 mph - N/A   Overcast
2:10 AM 42.8 °F 41.1 °F 42.8 °F 100% 29.66 in 2.5 mi WSW 3.5 mph - N/A   Overcast
2:50 AM 44.6 °F 39.7 °F 42.8 °F 93% 29.66 in 5.0 mi West 9.2 mph - N/A   Overcast
2:53 AM 44.1 °F 40.8 °F 42.1 °F 93% 29.68 in 6.0 mi Variable 5.8 mph - N/A   Overcast
3:00 AM 44.6 °F 40.2 °F 42.8 °F 93% 29.66 in 8.0 mi West 8.1 mph - N/A   Overcast
3:53 AM 43.0 °F 37.7 °F 41.0 °F 93% 29.68 in 6.0 mi West 9.2 mph - N/A   Overcast
4:09 AM 42.8 °F 37.0 °F 39.2 °F 87% 29.66 in 5.0 mi WSW 10.4 mph - N/A   Overcast
4:34 AM 42.8 °F 37.5 °F 39.2 °F 87% 29.67 in 9.0 mi West 9.2 mph 16.1 mph N/A   Overcast
4:53 AM 41.0 °F 35.8 °F 37.9 °F 89% 29.68 in 10.0 mi West 8.1 mph - N/A   Overcast
5:53 AM 39.0 °F 34.0 °F 36.0 °F 89% 29.69 in 8.0 mi Variable 6.9 mph 16.1 mph N/A   Overcast
6:24 AM 39.2 °F 33.0 °F 35.6 °F 87% 29.67 in 10.0 mi West 9.2 mph - N/A   Overcast
7:53 AM 39.0 °F 35.7 °F 33.1 °F 79% 29.70 in 10.0 mi Variable 4.6 mph - N/A   Overcast
8:53 AM 39.0 °F 34.8 °F 32.0 °F 76% 29.72 in 10.0 mi West 5.8 mph - N/A   Overcast
9:28 AM 37.4 °F 34.9 °F 33.8 °F 87% 29.71 in 10.0 mi Variable 3.5 mph - N/A   Scattered Clouds
9:42 AM 39.2 °F 35.9 °F 33.8 °F 81% 29.71 in 10.0 mi Variable 4.6 mph - N/A   Mostly Cloudy
9:53 AM 39.0 °F 34.0 °F 32.0 °F 76% 29.72 in 10.0 mi Variable 6.9 mph - N/A   Overcast
10:50 AM 37.4 °F 30.8 °F 30.2 °F 75% 29.73 in 10.0 mi WSW 9.2 mph 16.1 mph N/A   Overcast
10:53 AM 37.9 °F 31.5 °F 30.9 °F 76% 29.74 in 10.0 mi West 9.2 mph 16.1 mph N/A   Overcast
11:53 AM 37.9 °F 33.5 °F 30.9 °F 76% 29.72 in 10.0 mi Variable 5.8 mph - N/A   Mostly Cloudy
12:06 PM 37.4 °F 33.8 °F 30.2 °F 75% 29.70 in 10.0 mi West 4.6 mph - N/A   Scattered Clouds
12:27 PM 37.4 °F 32.1 °F 30.2 °F 75% 29.71 in 10.0 mi Variable 6.9 mph - N/A   Mostly Cloudy
12:50 PM 37.4 °F 31.4 °F 30.2 °F 75% 29.70 in 10.0 mi WNW 8.1 mph - N/A   Partly Cloudy
12:53 PM 37.9 °F 31.5 °F 30.0 °F 73% 29.71 in 10.0 mi WNW 9.2 mph - N/A   Partly Cloudy
1:31 PM 37.4 °F 32.1 °F 30.2 °F 75% 29.70 in 10.0 mi Variable 6.9 mph - N/A   Mostly Cloudy
1:53 PM 37.9 °F 34.4 °F 30.9 °F 76% 29.72 in 10.0 mi Variable 4.6 mph - N/A   Overcast
2:53 PM 37.0 °F 32.4 °F 30.9 °F 79% 29.73 in 10.0 mi West 5.8 mph - N/A   Overcast
3:53 PM 36.0 °F 31.1 °F 30.0 °F 79% 29.74 in 7.0 mi West 5.8 mph - N/A   Overcast
4:23 PM 35.6 °F 30.7 °F 30.2 °F 81% 29.73 in 7.0 mi Variable 5.8 mph - N/A   Overcast
4:53 PM 36.0 °F 31.1 °F 30.0 °F 79% 29.76 in 7.0 mi WSW 5.8 mph - N/A   Overcast
5:53 PM 35.1 °F 31.0 °F 30.9 °F 85% 29.79 in 7.0 mi Variable 4.6 mph - N/A   Overcast
6:53 PM 35.1 °F 30.1 °F 30.9 °F 85% 29.81 in 7.0 mi Variable 5.8 mph - N/A   Overcast
7:53 PM 35.1 °F - 30.9 °F 85% 29.83 in 6.0 mi Calm Calm - N/A   Overcast
8:00 PM 35.6 °F - 30.2 °F 81% 29.82 in 6.0 mi Calm Calm - N/A   Overcast
8:37 PM 35.6 °F - 30.2 °F 81% 29.83 in 6.0 mi Calm Calm - N/A   Overcast
8:53 PM 35.1 °F 31.0 °F 30.9 °F 85% 29.85 in 6.0 mi WSW 4.6 mph - N/A   Overcast
9:53 PM 34.0 °F - 30.9 °F 89% 29.87 in 6.0 mi Calm Calm - N/A   Overcast
10:03 PM 33.8 °F - 32.0 °F 93% 29.85 in 6.0 mi Calm Calm - N/A   Overcast
10:12 PM 33.8 °F - 32.0 °F 93% 29.85 in 6.0 mi Calm Calm - N/A   Overcast
10:53 PM 35.1 °F - 30.9 °F 85% 29.89 in 7.0 mi Calm Calm - N/A   Overcast
11:53 PM 34.0 °F 31.0 °F 30.0 °F 85% 29.91 in 10.0 mi Variable 3.5 mph - N/A   Overcast